HVDC transfer

From www.emi.ea.govt.nz provided by the Electricity Authority (New Zealand)
Run at: 20240507122739

Parameters
Date range,21 May 2019 - 21 May 2019
Time scale,Trading period
Show,Average flow (MW)

Period start,Period end,Trading period,Direction,Energy transfer (GWh),Peak flow (MW),Average flow (MW)
21/05/2019 00:00:00,21/05/2019 00:30:00,1,Northward at Haywards,0.235,469,469
21/05/2019 00:30:00,21/05/2019 01:00:00,2,Northward at Haywards,0.227,454,454
21/05/2019 01:00:00,21/05/2019 01:30:00,3,Northward at Haywards,0.212,423,423
21/05/2019 01:30:00,21/05/2019 02:00:00,4,Northward at Haywards,0.184,367,367
21/05/2019 02:00:00,21/05/2019 02:30:00,5,Northward at Haywards,0.172,344,344
21/05/2019 02:30:00,21/05/2019 03:00:00,6,Northward at Haywards,0.159,317,317
21/05/2019 03:00:00,21/05/2019 03:30:00,7,Northward at Haywards,0.156,311,311
21/05/2019 03:30:00,21/05/2019 04:00:00,8,Northward at Haywards,0.159,317,317
21/05/2019 04:00:00,21/05/2019 04:30:00,9,Northward at Haywards,0.180,360,360
21/05/2019 04:30:00,21/05/2019 05:00:00,10,Northward at Haywards,0.205,409,409
21/05/2019 05:00:00,21/05/2019 05:30:00,11,Northward at Haywards,0.233,466,466
21/05/2019 05:30:00,21/05/2019 06:00:00,12,Northward at Haywards,0.278,556,556
21/05/2019 06:00:00,21/05/2019 06:30:00,13,Northward at Haywards,0.286,572,572
21/05/2019 06:30:00,21/05/2019 07:00:00,14,Northward at Haywards,0.358,716,716
21/05/2019 07:00:00,21/05/2019 07:30:00,15,Northward at Haywards,0.365,730,730
21/05/2019 07:30:00,21/05/2019 08:00:00,16,Northward at Haywards,0.364,727,727
21/05/2019 08:00:00,21/05/2019 08:30:00,17,Northward at Haywards,0.357,713,713
21/05/2019 08:30:00,21/05/2019 09:00:00,18,Northward at Haywards,0.347,694,694
21/05/2019 09:00:00,21/05/2019 09:30:00,19,Northward at Haywards,0.342,684,684
21/05/2019 09:30:00,21/05/2019 10:00:00,20,Northward at Haywards,0.351,701,701
21/05/2019 10:00:00,21/05/2019 10:30:00,21,Northward at Haywards,0.319,637,637
21/05/2019 10:30:00,21/05/2019 11:00:00,22,Northward at Haywards,0.306,612,612
21/05/2019 11:00:00,21/05/2019 11:30:00,23,Northward at Haywards,0.328,655,655
21/05/2019 11:30:00,21/05/2019 12:00:00,24,Northward at Haywards,0.349,698,698
21/05/2019 12:00:00,21/05/2019 12:30:00,25,Northward at Haywards,0.344,687,687
21/05/2019 12:30:00,21/05/2019 13:00:00,26,Northward at Haywards,0.384,767,767
21/05/2019 13:00:00,21/05/2019 13:30:00,27,Northward at Haywards,0.357,713,713
21/05/2019 13:30:00,21/05/2019 14:00:00,28,Northward at Haywards,0.342,684,684
21/05/2019 14:00:00,21/05/2019 14:30:00,29,Northward at Haywards,0.326,651,651
21/05/2019 14:30:00,21/05/2019 15:00:00,30,Northward at Haywards,0.345,690,690
21/05/2019 15:00:00,21/05/2019 15:30:00,31,Northward at Haywards,0.346,692,692
21/05/2019 15:30:00,21/05/2019 16:00:00,32,Northward at Haywards,0.324,647,647
21/05/2019 16:00:00,21/05/2019 16:30:00,33,Northward at Haywards,0.309,618,618
21/05/2019 16:30:00,21/05/2019 17:00:00,34,Northward at Haywards,0.368,735,735
21/05/2019 17:00:00,21/05/2019 17:30:00,35,Northward at Haywards,0.409,818,818
21/05/2019 17:30:00,21/05/2019 18:00:00,36,Northward at Haywards,0.385,770,770
21/05/2019 18:00:00,21/05/2019 18:30:00,37,Northward at Haywards,0.396,791,791
21/05/2019 18:30:00,21/05/2019 19:00:00,38,Northward at Haywards,0.419,837,837
21/05/2019 19:00:00,21/05/2019 19:30:00,39,Northward at Haywards,0.410,819,819
21/05/2019 19:30:00,21/05/2019 20:00:00,40,Northward at Haywards,0.398,795,795
21/05/2019 20:00:00,21/05/2019 20:30:00,41,Northward at Haywards,0.390,780,780
21/05/2019 20:30:00,21/05/2019 21:00:00,42,Northward at Haywards,0.353,706,706
21/05/2019 21:00:00,21/05/2019 21:30:00,43,Northward at Haywards,0.328,655,655
21/05/2019 21:30:00,21/05/2019 22:00:00,44,Northward at Haywards,0.304,608,608
21/05/2019 22:00:00,21/05/2019 22:30:00,45,Northward at Haywards,0.265,530,530
21/05/2019 22:30:00,21/05/2019 23:00:00,46,Northward at Haywards,0.229,458,458
21/05/2019 23:00:00,21/05/2019 23:30:00,47,Northward at Haywards,0.193,386,386
21/05/2019 23:30:00,22/05/2019 00:00:00,48,Northward at Haywards,0.154,307,307
